User: anonymous   Login
Location: Bishopstone
(51.0167°N, 1.9000°W)
Time: 02:34:47
(UTC+00:00)
Language:

CZ-2C R/B - Orbit

View from above orbital plane
View from above orbital plane
View from above satellite
View from above satellite

Ground track
Ground track

The orbit data is extracted from the following two-line orbital elements,

1 31114U 07010B   19322.53225364 -.00000007  00000-0  15436-4 0  9996
2 31114  98.2853 184.3046 0059973 163.5670 196.7470 14.19301654652959
Epoch (UTC): 18 November 2019 12:46:26
Eccentricity: 0.0059973
inclination: 98.2853°
perigee height: 784 km
apogee height: 871 km
right ascension of ascending node: 184.3046°
argument of perigee: 163.5670°
revolutions per day: 14.19301654
mean anomaly at epoch: 196.7470°
orbit number at epoch: 65295

The dashed part of the orbit path shows where the satellite is in the earth's shadow,  

DLR